• In United Kingdom
  • List of Countries
  • For 7 days
  • Water Temperature
  • Satellite Maps
  • Weather Map
  • Weather Widgets
  • user-avatar
    Login

    Hourly Weather Wiktoria

    Today, 18 July, Wednesday

    Time Temperature Precipitation Wind Pressure Humidity
    00:00 +4°C° 0 mm 3 mps 748 mmHg 87%
    01:00 +4°C° 0 mm 2 mps 749 mmHg 89%
    02:00 +4°C° 0 mm 2 mps 749 mmHg 89%
    03:00 +4°C° 0 mm 2 mps 750 mmHg 89%
    04:00 +3°C° 0 mm 2 mps 750 mmHg 87%
    05:00 +3°C° 0 mm 2 mps 750 mmHg 87%
    06:00 +3°C° 0 mm 2 mps 751 mmHg 88%
    07:00 +3°C° 0 mm 2 mps 751 mmHg 88%
    08:00 +4°C° 0 mm 2 mps 751 mmHg 83%
    09:00 +5°C° 0 mm 3 mps 751 mmHg 78%
    10:00 +8°C° 0 mm 3 mps 751 mmHg 73%
    11:00 +10°C° 0 mm 4 mps 751 mmHg 68%
    12:00 +11°C° 0 mm 4 mps 751 mmHg 63%
    13:00 +13°C° 0 mm 5 mps 750 mmHg 58%
    14:00 +13°C° 0 mm 5 mps 750 mmHg 61%
    15:00 +13°C° 0 mm 4 mps 750 mmHg 63%
    16:00 +13°C° 0 mm 3 mps 749 mmHg 66%
    17:00 +12°C° 0 mm 3 mps 749 mmHg 66%
    18:00 +11°C° 0 mm 3 mps 749 mmHg 66%
    19:00 +10°C° 0 mm 3 mps 750 mmHg 66%
    20:00 +8°C° 0 mm 4 mps 750 mmHg 67%
    21:00 +7°C° 0 mm 4 mps 749 mmHg 68%
    22:00 +6°C° 0 mm 4 mps 749 mmHg 70%
    23:00 +6°C° 0 mm 4 mps 749 mmHg 70%

    Tomorrow, 19 July, Thursday

    Time Temperature Precipitation Wind Pressure Humidity
    00:00 +6°C° 0 mm 4 mps 749 mmHg 70%
    01:00 +5°C° 0 mm 4 mps 748 mmHg 70%
    02:00 +5°C° 0 mm 4 mps 748 mmHg 69%
    03:00 +5°C° 0 mm 4 mps 747 mmHg 68%
    04:00 +5°C° 0 mm 4 mps 747 mmHg 67%
    05:00 +5°C° 0 mm 4 mps 747 mmHg 67%
    06:00 +5°C° 0 mm 4 mps 746 mmHg 67%
    07:00 +5°C° 0 mm 4 mps 746 mmHg 67%
    08:00 +6°C° 0 mm 5 mps 746 mmHg 65%
    09:00 +8°C° 0 mm 5 mps 746 mmHg 62%
    10:00 +10°C° 0 mm 6 mps 746 mmHg 60%
    11:00 +11°C° 0 mm 6 mps 745 mmHg 57%
    12:00 +14°C° 0 mm 6 mps 745 mmHg 54%
    13:00 +15°C° 0 mm 7 mps 744 mmHg 51%
    14:00 +15°C° 0 mm 5 mps 744 mmHg 55%
    15:00 +15°C° 0 mm 4 mps 743 mmHg 58%
    16:00 +16°C° 0 mm 3 mps 742 mmHg 62%
    17:00 +14°C° 0 mm 3 mps 742 mmHg 62%
    18:00 +13°C° 0 mm 4 mps 742 mmHg 63%
    19:00 +12°C° 0 mm 4 mps 742 mmHg 64%
    20:00 +10°C° 0.4 mm 4 mps 743 mmHg 73%
    21:00 +8°C° 0.4 mm 3 mps 743 mmHg 82%
    22:00 +6°C° 0.4 mm 2 mps 743 mmHg 90%
    23:00 +6°C° 0.3 mm 2 mps 744 mmHg 91%

    Day after tomorrow, 20 July, Friday

    Time Temperature Precipitation Wind Pressure Humidity
    00:00 +6°C° 0.3 mm 2 mps 744 mmHg 92%
    01:00 +5°C° 0.3 mm 2 mps 744 mmHg 93%
    02:00 +5°C° 0 mm 2 mps 744 mmHg 94%
    03:00 +4°C° 0 mm 3 mps 744 mmHg 95%
    04:00 +4°C° 0 mm 3 mps 744 mmHg 95%
    05:00 +3°C° 0 mm 3 mps 745 mmHg 95%
    06:00 +3°C° 0 mm 3 mps 745 mmHg 96%
    07:00 +2°C° 0 mm 3 mps 746 mmHg 96%
    08:00 +3°C° 0 mm 4 mps 746 mmHg 90%
    09:00 +5°C° 0 mm 4 mps 747 mmHg 84%
    10:00 +6°C° 0 mm 5 mps 748 mmHg 78%
    11:00 +7°C° 0 mm 5 mps 748 mmHg 72%
    12:00 +8°C° 0 mm 6 mps 748 mmHg 66%
    13:00 +9°C° 0 mm 6 mps 748 mmHg 59%
    14:00 +9°C° 0 mm 6 mps 748 mmHg 61%
    15:00 +9°C° 0 mm 6 mps 749 mmHg 63%
    16:00 +9°C° 0 mm 5 mps 749 mmHg 65%
    17:00 +8°C° 0 mm 5 mps 749 mmHg 70%
    18:00 +7°C° 0 mm 4 mps 750 mmHg 74%
    19:00 +7°C° 0 mm 3 mps 751 mmHg 78%
    20:00 +5°C° 0 mm 3 mps 751 mmHg 82%
    21:00 +4°C° 0 mm 3 mps 752 mmHg 86%
    22:00 +4°C° 0 mm 2 mps 752 mmHg 89%
    23:00 +4°C° 0 mm 2 mps 753 mmHg 91%

    21 July, Saturday

    Time Temperature Precipitation Wind Pressure Humidity
    00:00 +3°C° 0 mm 2 mps 753 mmHg 92%
    01:00 +3°C° 0 mm 2 mps 753 mmHg 94%
    02:00 +3°C° 0 mm 2 mps 753 mmHg 94%
    03:00 +2°C° 0 mm 2 mps 753 mmHg 95%
    04:00 +2°C° 0 mm 2 mps 754 mmHg 95%
    05:00 +3°C° 0 mm 1 mps 754 mmHg 95%
    06:00 +3°C° 0 mm 1 mps 754 mmHg 95%
    07:00 +2°C° 0 mm 1 mps 755 mmHg 95%
    08:00 +4°C° 0 mm 1 mps 755 mmHg 91%
    09:00 +5°C° 0 mm 1 mps 755 mmHg 87%
    10:00 +6°C° 0 mm 2 mps 756 mmHg 83%
    11:00 +7°C° 0 mm 2 mps 755 mmHg 78%
    12:00 +9°C° 0 mm 3 mps 755 mmHg 73%
    13:00 +10°C° 0 mm 3 mps 754 mmHg 68%
    14:00 +10°C° 0.1 mm 3 mps 754 mmHg 69%
    15:00 +10°C° 0.1 mm 3 mps 754 mmHg 69%
    16:00 +10°C° 0.1 mm 2 mps 754 mmHg 69%
    17:00 +9°C° 0 mm 2 mps 754 mmHg 72%
    18:00 +7°C° 0 mm 2 mps 754 mmHg 76%
    19:00 +7°C° 0 mm 1 mps 754 mmHg 80%
    20:00 +5°C° 0 mm 2 mps 754 mmHg 82%
    21:00 +5°C° 0 mm 2 mps 755 mmHg 84%
    22:00 +4°C° 0 mm 2 mps 755 mmHg 86%
    23:00 +4°C° 0 mm 2 mps 755 mmHg 87%

    22 July, Sunday

    Time Temperature Precipitation Wind Pressure Humidity
    00:00 +3°C° 0 mm 2 mps 754 mmHg 88%
    01:00 +3°C° 0 mm 2 mps 754 mmHg 89%
    02:00 +3°C° 0 mm 2 mps 754 mmHg 90%
    03:00 +2°C° 0 mm 2 mps 754 mmHg 90%
    04:00 +1°C° 0 mm 3 mps 754 mmHg 91%
    05:00 +1°C° 0 mm 3 mps 754 mmHg 90%
    06:00 +1°C° 0 mm 3 mps 754 mmHg 90%
    07:00 +1°C° 0 mm 3 mps 755 mmHg 90%
    08:00 +2°C° 0 mm 3 mps 754 mmHg 84%
    09:00 +4°C° 0 mm 4 mps 754 mmHg 78%
    10:00 +5°C° 0 mm 4 mps 754 mmHg 72%
    11:00 +7°C° 0 mm 4 mps 754 mmHg 68%
    12:00 +9°C° 0 mm 5 mps 753 mmHg 64%
    13:00 +10°C° 0 mm 5 mps 752 mmHg 60%
    14:00 +12°C° 0 mm 4 mps 752 mmHg 61%
    15:00 +12°C° 0 mm 4 mps 751 mmHg 62%
    16:00 +12°C° 0 mm 4 mps 751 mmHg 63%
    17:00 +11°C° 0 mm 4 mps 751 mmHg 68%
    18:00 +8°C° 0 mm 4 mps 751 mmHg 72%
    19:00 +7°C° 0 mm 3 mps 751 mmHg 76%
    20:00 +6°C° 0 mm 4 mps 751 mmHg 76%
    21:00 +5°C° 0 mm 4 mps 751 mmHg 76%
    22:00 +5°C° 0 mm 4 mps 751 mmHg 77%
    23:00 +5°C° 0 mm 4 mps 751 mmHg 74%

    23 July, Monday

    Time Temperature Precipitation Wind Pressure Humidity
    00:00 +5°C° 0 mm 4 mps 751 mmHg 72%
    01:00 +5°C° 0 mm 4 mps 750 mmHg 69%
    02:00 +5°C° 0 mm 5 mps 750 mmHg 69%
    03:00 +5°C° 0 mm 5 mps 750 mmHg 68%
    04:00 +5°C° 0 mm 5 mps 749 mmHg 67%
    05:00 +5°C° 0 mm 5 mps 749 mmHg 66%
    06:00 +5°C° 0 mm 5 mps 749 mmHg 66%
    07:00 +4°C° 0 mm 6 mps 749 mmHg 65%
    08:00 +5°C° 0 mm 6 mps 748 mmHg 62%
    09:00 +7°C° 0 mm 6 mps 748 mmHg 60%
    10:00 +7°C° 0 mm 6 mps 748 mmHg 57%
    11:00 +8°C° 0.4 mm 6 mps 747 mmHg 63%
    12:00 +8°C° 0.4 mm 6 mps 747 mmHg 68%
    13:00 +8°C° 0.4 mm 6 mps 746 mmHg 74%
    14:00 +8°C° 0.7 mm 5 mps 746 mmHg 76%
    15:00 +8°C° 0.7 mm 4 mps 746 mmHg 79%
    16:00 +8°C° 0.7 mm 4 mps 746 mmHg 81%
    17:00 +9°C° 1.4 mm 3 mps 747 mmHg 85%
    18:00 +9°C° 1.4 mm 3 mps 748 mmHg 90%
    19:00 +8°C° 1.4 mm 2 mps 748 mmHg 94%
    20:00 +8°C° 0.2 mm 2 mps 749 mmHg 95%
    21:00 +9°C° 0.2 mm 1 mps 750 mmHg 96%
    22:00 +9°C° 0.2 mm 1 mps 750 mmHg 97%
    23:00 +8°C° 0 mm 1 mps 750 mmHg 97%
    Show more